Regional Weather Roundup
Issued by NWS

Home | Current Version | Previous Version | Graphics & Text | Print | Product List | Glossary On
Versions: 1 2 3 4 5 6 7 8 9 10 11 12 13 14 15 16 17 18 19 20 21 22 23 24 25 26 27 28 29 30 31 32 33 34 35 36 37 38 39 40 41 42 43 44 45 46 47 48 49 50
927
ASUS45 KBOU 040307
RWRCO

WEATHER ROUNDUP FOR COLORADO
NATIONAL WEATHER SERVICE DENVER/BOULDER CO
900 PM MDT TUE MAY 03 2016

NOTE: "FAIR" INDICATES FEW OR NO CLOUDS BELOW 12000 FEET WITH NO
SIGNIFICANT WEATHER AND/OR OBSTRUCTIONS TO VISIBILITY.

COZ001>005-013-030-031-040400-
...NORTHWEST COLORADO...

CITY           SKY/WX    TMP DP  RH WIND       PRES   REMARKS
CRAIG          FAIR      50  34  54 S5        30.24R
HAYDEN         FAIR      54  32  43 SW7       30.25S
MEEKER         FAIR      55  30  38 E6        30.24R
MOUNT WERNER   NOT AVBL
STEAMBOAT SPGS FAIR      52  32  45 E3        30.27R
WALDEN         FAIR      39  27  60 E6        30.36R
$$

COZ006>008-011-040400-
...WEST CENTRAL VALLEYS...

CITY           SKY/WX    TMP DP  RH WIND       PRES   REMARKS
GRAND JUNCTION FAIR      58  39  49 CALM      30.13R
MONTROSE       FAIR      57  30  35 E3        30.20R
EAGLE          FAIR      57  23  26 SE3       30.26R
RIFLE          FAIR      63  26  24 CALM      30.18R
DELTA          NOT AVBL
NUCLA          NOT AVBL
$$

COZ017>023-064>068-040400-
...SOUTHWEST COLORADO...

CITY           SKY/WX    TMP DP  RH WIND       PRES   REMARKS
DURANGO        FAIR      56  35  45 SW6       30.24R
CORTEZ         FAIR      56  31  38 SW9       30.21R
PAGOSA SPRINGS FAIR      50  31  47 NW3       30.29R
TELLURIDE      FAIR      48  23  37 SE9       30.36R
WOLF CREEK PAS FAIR      34  12  40 CALM      30.53R
$$

COZ009-010-012-014-032>034-037-058>063-040400-
...CENTRAL COLORADO...

CITY           SKY/WX    TMP DP  RH WIND       PRES   REMARKS
ASPEN          FAIR      53  21  28 SE10      30.29R
BUENA VISTA    FAIR      49  21  33 NE5       30.33R
COPPER MTN     NOT AVBL
BERTHOUD PASS  FAIR      28  19  69 W13       30.52R WCI  18
COTTONWOOD PAS FAIR      48   7  18 W8        30.41R
GUNNISON       FAIR      54  18  24 N5        30.30R
KREMMLING      FAIR      46  23  39 CALM      30.31R
LEADVILLE      FAIR      38  14  37 N5        30.39R
MONARCH PASS   FAIR      32  19  59 NE16      30.60R WCI  21
SALIDA         FAIR      53  22  29 CALM      30.37R
SUNLIGHT       FAIR      43  21  42 CALM      30.49R
WILKERSON PASS FAIR      34  21  60 SE8       30.50R WCI  27
$$

COZ069>075-040400-
...SAN LUIS VALLEY/SANGRE DE CRISTO MOUNTAINS...

CITY           SKY/WX    TMP DP  RH WIND       PRES   REMARKS
ALAMOSA        FAIR      48  19  31 E9        30.29R
LA VETA PASS   FAIR      36  23  60 NE8       30.44R
SAGUACHE       FAIR      50  23  34 CALM      30.32R
$$

COZ035-036-038>040-040400-
...NORTHERN COLORADO FRONT RANGE...

CITY           SKY/WX    TMP DP  RH WIND       PRES   REMARKS
DENVER INTL AP FAIR      60  30  32 NW5       30.23R
DMNS CITY PARK   N/A     54  26  33 CALM      30.24R
AURORA         FAIR      55  34  45 CALM      30.25R
FRONT RANGE AP NOT AVBL
ERIE MUNI ARPT FAIR      50  39  65 SW3       30.23R
BOULDER MUN AP FAIR      55  32  41 W5        30.23R
CENTENNIAL     FAIR      54  28  36 CALM      30.26R
BROOMFIELD     PTCLDY    55  28  35 W3        30.26R
FORT COLLINS   FAIR      54  34  47 E5        30.23R
LONGMONT       FAIR      49  38  63 NW7       30.25R
$$

COZ041-046-047-076>085-087-088-040400-
...PIKES PEAK/PALMER DIVIDE AND SOUTHERN FOOTHILLS...

CITY           SKY/WX    TMP DP  RH WIND       PRES   REMARKS
COLO. SPRINGS  FAIR      48  28  46 N12       30.28R
A. F. ACADEMY  FAIR      45  27  49 N8        30.29R
SCHRIEVER AFB  NOT AVBL
ELLICOTT       FAIR     N/A N/A N/A NE3       30.26R
FALCON         FAIR      44  29  55 NW7       30.31R
FORT CARSON    FAIR      53  26  35 NW7       30.25R
LIMON          FAIR      41  38  89 N7        30.22R
MONUMENT HILL  FAIR      45  30  57 N5        30.32R
TRINIDAD       FAIR      52  30  43 NW5       30.25R
$$

COZ042>045-048>051-090-091-040400-
...NORTHEAST COLORADO...

CITY           SKY/WX    TMP DP  RH WIND       PRES   REMARKS
GREELEY ARPT   FAIR      52  37  58 N5        30.20R
AKRON          FAIR      55  30  38 NE5       30.18R
BURLINGTON     FAIR      50  35  56 NW3       30.15R
WRAY           NOT AVBL
STERLING       FAIR      52  36  54 CALM      30.14R
HOLYOKE        NOT AVBL
FORT MORGAN    FAIR      51  37  58 NW10      30.18R
$$

COZ086-089-092>099-040400-
...SOUTHEAST COLORADO...

CITY           SKY/WX    TMP DP  RH WIND       PRES   REMARKS
PUEBLO         FAIR      53  36  52 N8        30.20R
LA JUNTA       FAIR      58  33  39 N3        30.17R
LAMAR          FAIR      51  34  52 S5        30.13R
SPRINGFIELD      N/A     45  33  63 NW7       30.17R
$$




USA.gov is the U.S. government's official web portal to all federal, state and local government web resources and services.